TimeCDT,TemperatureF,Dew PointF,Humidity,Sea Level PressureIn,VisibilityMPH,Wind Direction,Wind SpeedMPH,Gust SpeedMPH,PrecipitationIn,Events,Conditions,WindDirDegrees,DateUTC
12:15 AM,53.6,42.8,67,29.96,10.0,South,4.6,-,N/A,,Clear,190,2014-04-26 05:15:00
12:35 AM,53.6,41.0,62,29.97,10.0,SW,4.6,-,N/A,,Clear,220,2014-04-26 05:35:00
12:55 AM,53.6,41.0,62,29.97,10.0,SW,5.8,-,N/A,,Clear,220,2014-04-26 05:55:00
1:15 AM,57.2,37.4,48,29.97,10.0,SW,5.8,-,N/A,,Clear,220,2014-04-26 06:15:00
1:35 AM,57.2,39.2,51,29.97,10.0,SW,4.6,-,N/A,,Clear,220,2014-04-26 06:35:00
1:55 AM,55.4,39.2,54,29.96,10.0,SSW,5.8,-,N/A,,Clear,210,2014-04-26 06:55:00
2:15 AM,51.8,41.0,67,29.95,10.0,South,4.6,-,N/A,,Clear,170,2014-04-26 07:15:00
2:35 AM,50.0,41.0,71,29.95,10.0,SSW,5.8,-,N/A,,Clear,200,2014-04-26 07:35:00
2:55 AM,53.6,41.0,62,29.95,10.0,SSW,5.8,-,N/A,,Clear,200,2014-04-26 07:55:00
3:15 AM,50.0,41.0,71,29.95,10.0,SSW,4.6,-,N/A,,Clear,200,2014-04-26 08:15:00
3:35 AM,50.0,41.0,71,29.95,10.0,South,3.5,-,N/A,,Clear,190,2014-04-26 08:35:00
3:55 AM,48.2,42.8,82,29.95,10.0,SSW,4.6,-,N/A,,Clear,200,2014-04-26 08:55:00
4:15 AM,48.2,41.0,76,29.95,10.0,SSW,5.8,-,N/A,,Clear,200,2014-04-26 09:15:00
4:35 AM,48.2,41.0,76,29.95,10.0,South,4.6,-,N/A,,Clear,180,2014-04-26 09:35:00
4:55 AM,48.2,41.0,76,29.95,10.0,South,4.6,-,N/A,,Clear,170,2014-04-26 09:55:00
5:15 AM,46.4,41.0,81,29.95,10.0,SSE,5.8,-,N/A,,Clear,150,2014-04-26 10:15:00
5:35 AM,50.0,41.0,71,29.95,10.0,South,5.8,-,N/A,,Clear,170,2014-04-26 10:35:00
5:55 AM,48.2,41.0,76,29.96,10.0,SSE,4.6,-,N/A,,Clear,160,2014-04-26 10:55:00
6:15 AM,50.0,41.0,71,29.96,10.0,South,6.9,-,N/A,,Clear,170,2014-04-26 11:15:00
6:35 AM,50.0,41.0,71,29.97,10.0,SSE,5.8,-,N/A,,Clear,160,2014-04-26 11:35:00
6:55 AM,51.8,41.0,67,29.98,10.0,South,5.8,-,N/A,,Clear,170,2014-04-26 11:55:00
7:15 AM,53.6,42.8,67,29.98,10.0,SSE,4.6,-,N/A,,Clear,160,2014-04-26 12:15:00
7:35 AM,57.2,42.8,59,29.99,10.0,South,5.8,-,N/A,,Clear,170,2014-04-26 12:35:00
7:55 AM,57.2,44.6,63,29.99,10.0,SSE,4.6,-,N/A,,Clear,160,2014-04-26 12:55:00
8:15 AM,59.0,44.6,59,29.99,10.0,South,5.8,-,N/A,,Clear,170,2014-04-26 13:15:00
8:35 AM,62.6,44.6,52,29.99,10.0,South,3.5,-,N/A,,Clear,180,2014-04-26 13:35:00
8:55 AM,64.4,44.6,49,29.99,10.0,South,6.9,-,N/A,,Clear,170,2014-04-26 13:55:00
9:15 AM,66.2,44.6,46,29.99,10.0,SSE,8.1,-,N/A,,Clear,160,2014-04-26 14:15:00
9:35 AM,68.0,44.6,43,30.00,10.0,South,5.8,-,N/A,,Clear,190,2014-04-26 14:35:00
9:55 AM,68.0,44.6,43,30.00,10.0,South,8.1,-,N/A,,Clear,190,2014-04-26 14:55:00
10:15 AM,69.8,44.6,40,30.00,10.0,South,6.9,-,N/A,,Clear,190,2014-04-26 15:15:00
10:55 AM,71.6,44.6,38,30.00,10.0,SW,9.2,-,N/A,,Clear,230,2014-04-26 15:55:00
11:15 AM,71.6,44.6,38,30.00,10.0,WSW,8.1,-,N/A,,Clear,240,2014-04-26 16:15:00
11:35 AM,73.4,44.6,36,30.00,10.0,SW,8.1,-,N/A,,Clear,220,2014-04-26 16:35:00
11:55 AM,73.4,46.4,38,29.99,10.0,SW,8.1,-,N/A,,Clear,220,2014-04-26 16:55:00
12:15 PM,73.4,44.6,36,29.99,10.0,SSW,8.1,-,N/A,,Clear,210,2014-04-26 17:15:00
12:35 PM,75.2,46.4,36,29.98,10.0,SSW,8.1,-,N/A,,Clear,200,2014-04-26 17:35:00
12:55 PM,75.2,44.6,34,29.98,10.0,WSW,6.9,-,N/A,,Clear,250,2014-04-26 17:55:00
1:15 PM,77.0,44.6,32,29.97,10.0,South,6.9,16.1,N/A,,Clear,190,2014-04-26 18:15:00
1:35 PM,77.0,44.6,32,29.97,10.0,South,11.5,-,N/A,,Clear,180,2014-04-26 18:35:00
1:55 PM,77.0,44.6,32,29.96,10.0,South,9.2,-,N/A,,Clear,180,2014-04-26 18:55:00
2:15 PM,77.0,46.4,34,29.95,10.0,South,9.2,-,N/A,,Clear,190,2014-04-26 19:15:00
2:35 PM,77.0,44.6,32,29.95,10.0,SSW,5.8,-,N/A,,Clear,210,2014-04-26 19:35:00
2:55 PM,78.8,44.6,30,29.94,10.0,South,5.8,17.3,N/A,,Clear,190,2014-04-26 19:55:00
3:15 PM,80.6,46.4,30,29.93,10.0,SSW,11.5,16.1,N/A,,Clear,200,2014-04-26 20:15:00
3:35 PM,80.6,46.4,30,29.92,10.0,SW,5.8,16.1,N/A,,Clear,230,2014-04-26 20:35:00
3:55 PM,78.8,46.4,32,29.91,10.0,SW,6.9,-,N/A,,Clear,230,2014-04-26 20:55:00
4:15 PM,77.0,44.6,32,29.90,10.0,South,8.1,-,N/A,,Clear,180,2014-04-26 21:15:00
4:35 PM,77.0,44.6,32,29.89,10.0,South,5.8,-,N/A,,Clear,180,2014-04-26 21:35:00
4:55 PM,78.8,46.4,32,29.90,10.0,SSW,4.6,-,N/A,,Clear,210,2014-04-26 21:55:00
5:15 PM,78.8,46.4,32,29.89,10.0,South,5.8,-,N/A,,Clear,190,2014-04-26 22:15:00
5:35 PM,80.6,46.4,30,29.89,10.0,South,6.9,-,N/A,,Clear,180,2014-04-26 22:35:00
5:55 PM,78.8,48.2,34,29.89,10.0,SSW,5.8,-,N/A,,Clear,200,2014-04-26 22:55:00
6:15 PM,78.8,48.2,34,29.90,10.0,SW,4.6,-,N/A,,Clear,220,2014-04-26 23:15:00
6:35 PM,77.0,48.2,36,29.88,10.0,South,4.6,-,N/A,,Clear,180,2014-04-26 23:35:00
6:55 PM,77.0,48.2,36,29.87,10.0,South,4.6,-,N/A,,Clear,190,2014-04-26 23:55:00
7:15 PM,73.4,50.0,44,29.87,10.0,South,4.6,-,N/A,,Clear,180,2014-04-27 00:15:00
7:35 PM,71.6,50.0,46,29.87,10.0,Calm,Calm,-,N/A,,Clear,0,2014-04-27 00:35:00
7:55 PM,68.0,50.0,52,29.88,10.0,Calm,Calm,-,N/A,,Clear,0,2014-04-27 00:55:00
8:15 PM,66.2,50.0,56,29.88,10.0,Calm,Calm,-,N/A,,Clear,0,2014-04-27 01:15:00
8:35 PM,66.2,50.0,56,29.88,10.0,Calm,Calm,-,N/A,,Clear,0,2014-04-27 01:35:00
9:15 PM,66.2,50.0,56,29.89,10.0,South,4.6,-,N/A,,Clear,170,2014-04-27 02:15:00
9:35 PM,66.2,50.0,56,29.89,10.0,South,6.9,-,N/A,,Clear,180,2014-04-27 02:35:00
9:55 PM,68.0,48.2,49,29.89,10.0,South,8.1,-,N/A,,Clear,180,2014-04-27 02:55:00
10:15 PM,68.0,48.2,49,29.89,10.0,South,5.8,-,N/A,,Clear,180,2014-04-27 03:15:00
10:35 PM,68.0,48.2,49,29.89,10.0,South,5.8,-,N/A,,Clear,180,2014-04-27 03:35:00
10:55 PM,68.0,48.2,49,29.89,10.0,South,5.8,-,N/A,,Clear,190,2014-04-27 03:55:00
11:15 PM,68.0,48.2,49,29.88,10.0,South,6.9,-,N/A,,Clear,180,2014-04-27 04:15:00
11:35 PM,66.2,50.0,56,29.88,10.0,South,4.6,-,N/A,,Clear,170,2014-04-27 04:35:00
11:55 PM,64.4,50.0,59,29.88,10.0,South,5.8,-,N/A,,Clear,170,2014-04-27 04:55:00